Location: Saint Louis
(38.6272°N, 90.1978°W)
Time: 02:26:31
(UTC-05:00)

ISS - Pass Details

Date: 28 December 2012
Orbit: 402 x 404 km, 51.6° (Epoch: 01 June)

Event Time Altitude Azimuth Distance (km) Brightness Sun altitude
Rises 18:47:26 0° 292° (WNW) 2,379 1.5 -22.6°
Reaches altitude 10° 18:50:11 10° 269° (W) 1,498 0.6 -23.2°
Maximum altitude 18:52:13 15° 231° (SW) 1,207 -0.2 -23.6°
Drops below altitude 10° 18:54:14 10° 193° (SSW) 1,475 -0.2 -23.9°
Enters shadow 18:55:16 - 181° (S) 1,763 0.0 -24.1°
